Location: Brienzwiler
(46.7508°N, 8.1014°E)
Time: 00:53:19
(UTC+00:00)

Lacrosse 5 rocket - Pass Details

Date: 05 July 2020
Orbit: 465 x 632 km, 57.0° (Epoch: 11 August)

Event Time Altitude Azimuth Distance (km) Brightness Sun altitude
Rises 22:54:33 0° 307° (NW) 2,733 5.6 -20.1°
Reaches altitude 10° 22:57:07 10° 320° (NW) 1,803 4.8 -20.1°
Maximum altitude 23:00:34 26° 19° (NNE) 1,051 3.4 -20.2°
Drops below altitude 10° 23:03:52 10° 77° (ENE) 1,715 3.9 -20.3°
Sets 23:06:15 0° 91° (E) 2,570 4.7 -20.3°
Enters shadow 23:06:17 - 91° (E) 2,582 4.7 -20.3°
